| time (UTC) | temp C | wind direction | speed KPH | gust KPH | rain 1hr cm | rain 24hr cm | rain mn cm | humidity % | barometer mb |
| 20260509023016 | 15 | 45 | 1.6 | 12.9 | 0.00 | 0.00 | 0.00 | 80 | 1004.6 |
| 20260509021516 | 15 | 0.0 | 9.7 | 0.00 | 0.00 | 0.00 | 76 | 1004.4 | |
| 20260509020016 | 16 | 0.0 | 0.0 | 0.00 | 0.00 | 0.00 | 71 | 1003.9 | |
| 20260509014521 | 16 | 0.0 | 1.6 | 0.00 | 0.00 | 0.00 | 66 | 1003.5 | |
| 20260509013017 | 17 | 0.0 | 1.6 | 0.00 | 0.00 | 0.00 | 63 | 1003.4 | |
| 20260509011538 | 17 | 0.0 | 6.4 | 0.00 | 0.00 | 0.00 | 58 | 1003.5 | |
| 20260509010016 | 17 | 0.0 | 4.8 | 0.00 | 0.00 | 0.00 | 57 | 1003.8 | |
| 20260509004516 | 17 | 0.0 | 1.6 | 0.00 | 0.00 | 0.00 | 56 | 1003.4 | |
| 20260509003016 | 17 | 0.0 | 1.6 | 0.00 | 0.00 | 0.00 | 53 | 1003.2 | |
| 20260509001540 | 18 | 0.0 | 3.2 | 0.00 | 0.00 | 0.00 | 52 | 1003.2 | |
| 20260509000018 | 18 | 0.0 | 0.0 | 0.00 | 0.00 | 0.00 | 50 | 1003.6 | |
| 20260508234517 | 19 | 0.0 | 1.6 | 0.00 | 0.00 | 0.00 | 47 | 1003.3 | |
| 20260508233016 | 19 | 0.0 | 8.0 | 0.00 | 0.00 | 0.00 | 44 | 1003.2 | |
| 20260508231517 | 19 | 0.0 | 9.7 | 0.00 | 0.00 | 0.00 | 43 | 1003.3 | |
| 20260508230017 | 20 | 0.0 | 4.8 | 0.00 | 0.00 | 0.00 | 43 | 1003.3 | |
| 20260508224518 | 20 | 0.0 | 4.8 | 0.00 | 0.00 | 0.00 | 42 | 1003.1 | |
| 20260508223016 | 20 | 0.0 | 4.8 | 0.00 | 0.00 | 0.00 | 41 | 1003.1 | |
| 20260508221516 | 20 | 158 | 1.6 | 11.3 | 0.00 | 0.00 | 0.00 | 41 | 1003.1 |
| 20260508220018 | 20 | 248 | 1.6 | 9.7 | 0.00 | 0.00 | 0.00 | 39 | 1003.1 |
| 20260508214517 | 20 | 158 | 1.6 | 11.3 | 0.00 | 0.00 | 0.00 | 40 | 1002.9 |
| 20260508213038 | 20 | 158 | 1.6 | 9.7 | 0.00 | 0.00 | 0.00 | 39 | 1003.1 |
| 20260508211517 | 21 | 158 | 1.6 | 12.9 | 0.00 | 0.00 | 0.00 | 38 | 1003.1 |
| 20260508210017 | 21 | 158 | 3.2 | 19.3 | 0.00 | 0.00 | 0.00 | 37 | 1003.3 |
| 20260508204520 | 20 | 158 | 3.2 | 12.9 | 0.00 | 0.00 | 0.00 | 40 | 1003.7 |
| 20260508203017 | 20 | 180 | 3.2 | 17.7 | 0.00 | 0.00 | 0.00 | 40 | 1004.0 |
| 20260508201517 | 20 | 158 | 1.6 | 11.3 | 0.00 | 0.00 | 0.00 | 39 | 1004.2 |
| 20260508200037 | 20 | 180 | 1.6 | 11.3 | 0.00 | 0.00 | 0.00 | 39 | 1004.4 |
| 20260508194517 | 20 | 158 | 1.6 | 17.7 | 0.00 | 0.00 | 0.00 | 41 | 1004.6 |
| 20260508193017 | 20 | 180 | 1.6 | 17.7 | 0.00 | 0.00 | 0.00 | 39 | 1004.7 |
| 20260508191538 | 20 | 158 | 1.6 | 12.9 | 0.00 | 0.00 | 0.00 | 41 | 1004.8 |
| 20260508190018 | 21 | 158 | 3.2 | 17.7 | 0.00 | 0.00 | 0.00 | 40 | 1004.7 |
| 20260508184517 | 21 | 158 | 4.8 | 25.7 | 0.00 | 0.00 | 0.00 | 37 | 1005.1 |
| 20260508183017 | 20 | 158 | 3.2 | 17.7 | 0.00 | 0.00 | 0.00 | 43 | 1005.1 |
| 20260508181538 | 20 | 180 | 1.6 | 14.5 | 0.00 | 0.00 | 0.00 | 39 | 1005.8 |
| 20260508180037 | 20 | 158 | 3.2 | 19.3 | 0.00 | 0.00 | 0.00 | 38 | 1005.9 |
| 20260508174517 | 20 | 180 | 3.2 | 12.9 | 0.00 | 0.00 | 0.00 | 41 | 1006.1 |
| 20260508173018 | 20 | 158 | 1.6 | 12.9 | 0.00 | 0.00 | 0.00 | 41 | 1006.4 |
| 20260508171517 | 20 | 158 | 1.6 | 17.7 | 0.00 | 0.00 | 0.00 | 42 | 1006.7 |
| 20260508170017 | 20 | 180 | 3.2 | 19.3 | 0.00 | 0.00 | 0.00 | 44 | 1006.9 |
| 20260508164517 | 20 | 180 | 4.8 | 19.3 | 0.00 | 0.00 | 0.00 | 43 | 1007.2 |
| 20260508163017 | 20 | 158 | 3.2 | 19.3 | 0.00 | 0.00 | 0.00 | 44 | 1007.4 |
| 20260508161517 | 20 | 158 | 3.2 | 20.9 | 0.00 | 0.00 | 0.00 | 45 | 1007.6 |
| 20260508160038 | 19 | 180 | 4.8 | 20.9 | 0.00 | 0.00 | 0.00 | 47 | 1007.7 |
| 20260508154517 | 18 | 158 | 6.4 | 25.7 | 0.00 | 0.00 | 0.00 | 48 | 1007.9 |
| 20260508153017 | 18 | 158 | 4.8 | 17.7 | 0.00 | 0.00 | 0.00 | 46 | 1008.1 |
| 20260508151519 | 18 | 180 | 3.2 | 14.5 | 0.00 | 0.00 | 0.00 | 47 | 1008.3 |
| 20260508150017 | 17 | 158 | 3.2 | 20.9 | 0.00 | 0.00 | 0.00 | 49 | 1008.3 |
| 20260508144517 | 17 | 158 | 3.2 | 17.7 | 0.00 | 0.00 | 0.00 | 49 | 1008.5 |
| 20260508143017 | 16 | 225 | 3.2 | 17.7 | 0.00 | 0.00 | 0.00 | 51 | 1008.4 |
| 20260508141519 | 16 | 180 | 3.2 | 14.5 | 0.00 | 0.00 | 0.00 | 52 | 1008.6 |
| 20260508140019 | 15 | 158 | 3.2 | 17.7 | 0.00 | 0.00 | 0.00 | 53 | 1008.7 |
| 20260508134515 | 14 | 203 | 3.2 | 19.3 | 0.00 | 0.00 | 0.00 | 57 | 1008.8 |
| 20260508133017 | 13 | 180 | 4.8 | 17.7 | 0.00 | 0.00 | 0.00 | 55 | 1008.8 |
| 20260508131515 | 13 | 180 | 1.6 | 12.9 | 0.00 | 0.00 | 0.00 | 59 | 1008.9 |
| 20260508130017 | 12 | 180 | 3.2 | 14.5 | 0.00 | 0.00 | 0.00 | 59 | 1008.7 |
| 20260508124516 | 11 | 180 | 1.6 | 19.3 | 0.00 | 0.00 | 0.00 | 61 | 1008.7 |
| 20260508123015 | 11 | 158 | 1.6 | 11.3 | 0.00 | 0.00 | 0.00 | 63 | 1008.6 |
| 20260508121516 | 10 | 180 | 1.6 | 11.3 | 0.00 | 0.00 | 0.00 | 66 | 1008.7 |
| 20260508120015 | 10 | 0.0 | 9.7 | 0.00 | 0.00 | 0.00 | 68 | 1008.5 | |
| 20260508114535 | 9 | 0.0 | 4.8 | 0.00 | 0.00 | 0.00 | 72 | 1008.6 | |
| 20260508113017 | 8 | 0.0 | 4.8 | 0.00 | 0.00 | 0.00 | 74 | 1008.2 | |
| 20260508111515 | 8 | 0.0 | 4.8 | 0.00 | 0.00 | 0.00 | 69 | 1008.0 | |
| 20260508110016 | 8 | 0.0 | 1.6 | 0.00 | 0.00 | 0.00 | 70 | 1008.0 | |
| 20260508104517 | 8 | 0.0 | 1.6 | 0.00 | 0.00 | 0.00 | 70 | 1008.0 | |
| 20260508103016 | 8 | 0.0 | 3.2 | 0.00 | 0.00 | 0.00 | 71 | 1008.0 | |
| 20260508101515 | 8 | 0.0 | 4.8 | 0.00 | 0.00 | 0.00 | 74 | 1007.9 | |
| 20260508100017 | 7 | 0.0 | 1.6 | 0.00 | 0.00 | 0.00 | 80 | 1007.9 | |
| 20260508094517 | 7 | 0.0 | 0.0 | 0.00 | 0.00 | 0.00 | 87 | 1008.0 | |
| 20260508093017 | 6 | 0.0 | 0.0 | 0.00 | 0.00 | 0.00 | 92 | 1007.9 | |
| 20260508091517 | 6 | 0.0 | 0.0 | 0.00 | 0.00 | 0.00 | 92 | 1008.0 | |
| 20260508090018 | 6 | 0.0 | 0.0 | 0.00 | 0.00 | 0.00 | 92 | 1008.1 | |
| 20260508084516 | 6 | 0.0 | 0.0 | 0.00 | 0.00 | 0.00 | 91 | 1008.0 | |
| 20260508083016 | 6 | 0.0 | 0.0 | 0.00 | 0.00 | 0.00 | 91 | 1007.9 | |
| 20260508081516 | 6 | 0.0 | 0.0 | 0.00 | 0.00 | 0.00 | 90 | 1007.8 | |
| 20260508080016 | 6 | 0.0 | 0.0 | 0.00 | 0.00 | 0.00 | 90 | 1007.9 | |
| 20260508074517 | 6 | 0.0 | 0.0 | 0.00 | 0.00 | 0.00 | 89 | 1007.9 | |
| 20260508073016 | 6 | 0.0 | 0.0 | 0.00 | 0.00 | 0.00 | 88 | 1007.9 | |
| 20260508071516 | 6 | 0.0 | 0.0 | 0.00 | 0.00 | 0.00 | 87 | 1008.0 | |
| 20260508070016 | 7 | 0.0 | 0.0 | 0.00 | 0.00 | 0.00 | 87 | 1008.0 | |
| 20260508064516 | 7 | 0.0 | 1.6 | 0.00 | 0.00 | 0.00 | 86 | 1008.1 | |
| 20260508063017 | 6 | 0.0 | 0.0 | 0.00 | 0.00 | 0.00 | 87 | 1008.5 | |
| 20260508061516 | 6 | 0.0 | 0.0 | 0.00 | 0.00 | 0.00 | 86 | 1008.6 | |
| 20260508060018 | 7 | 0.0 | 0.0 | 0.00 | 0.00 | 0.00 | 84 | 1008.9 | |
| 20260508054536 | 7 | 0.0 | 0.0 | 0.00 | 0.00 | 0.00 | 81 | 1008.7 | |
| 20260508053016 | 7 | 0.0 | 0.0 | 0.00 | 0.00 | 0.00 | 79 | 1008.7 | |
| 20260508051516 | 8 | 0.0 | 0.0 | 0.00 | 0.00 | 0.00 | 76 | 1008.7 | |
| 20260508050017 | 8 | 0.0 | 0.0 | 0.00 | 0.00 | 0.00 | 74 | 1008.6 | |
| 20260508044516 | 9 | 0.0 | 0.0 | 0.00 | 0.00 | 0.00 | 69 | 1008.4 | |
| 20260508043058 | 9 | 0.0 | 3.2 | 0.00 | 0.00 | 0.00 | 63 | 1008.7 | |
| 20260508041516 | 8 | 0.0 | 1.6 | 0.00 | 0.00 | 0.00 | 68 | 1008.6 | |
| 20260508040016 | 8 | 0.0 | 0.0 | 0.00 | 0.00 | 0.00 | 71 | 1008.6 | |
| 20260508034516 | 8 | 0.0 | 1.6 | 0.00 | 0.00 | 0.00 | 70 | 1008.5 | |
| 20260508033018 | 8 | 0.0 | 0.0 | 0.00 | 0.00 | 0.00 | 72 | 1008.5 | |
| 20260508031537 | 8 | 0.0 | 0.0 | 0.00 | 0.00 | 0.00 | 75 | 1008.6 | |
| 20260508030017 | 8 | 0.0 | 0.0 | 0.00 | 0.00 | 0.00 | 76 | 1008.6 | |
| 20260508024517 | 8 | 0.0 | 0.0 | 0.00 | 0.00 | 0.00 | 79 | 1008.5 |